Data for 12/15/2016

Time Sea-Level Adjusted Pressure Absolute Pressure Temperature Relative Humidity Dew Point   
(mb) (inHg) (mb) (inHg) (C) (F) (%) (C) (F)
00:05 1013 29.91 843 24.89 -10.2 13.6 86 -12.1 10.3
00:10 1013 29.91 842 24.86 -10.2 13.7 85 -12.2 10.1
00:15 1013 29.91 842 24.86 -10.3 13.6 86 -12.1 10.1
00:20 1013 29.91 842 24.86 -10.2 13.7 86 -12.1 10.3
00:25 1013 29.91 842 24.86 -10.1 13.8 85 -12.2 10.1
00:30 1013 29.91 842 24.86 -10.1 13.9 85 -12.1 10.3
00:35 1013 29.91 842 24.86 -10.1 13.9 86 -12 10.3
00:40 1013 29.91 842 24.86 -10.1 13.8 85 -12.2 10.1
00:45 1013 29.91 842 24.86 -10.2 13.7 84 -12.3 9.8
00:50 1012 29.88 842 24.86 -10.3 13.4 84 -12.6 9.4
00:55 1012 29.88 842 24.86 -10.5 13.2 84 -12.7 9.2
01:00 1012 29.88 842 24.86 -10.5 13 83 -12.9 8.9
01:05 1012 29.88 841 24.83 -10.5 13.1 83 -12.8 8.9
01:10 1012 29.88 841 24.83 -10.4 13.3 83 -12.7 9.1
01:15 1012 29.88 841 24.83 -10.3 13.5 84 -12.5 9.4
01:20 1012 29.88 841 24.83 -10.2 13.7 85 -12.2 10
01:25 1012 29.88 841 24.83 -10.1 13.8 85 -12.2 10.1
01:30 1012 29.88 841 24.83 -10.2 13.7 85 -12.1 10.1
01:35 1012 29.88 841 24.83 -10.1 13.8 85 -12.2 10.1
01:40 1012 29.88 841 24.83 -10.1 13.8 84 -12.3 9.9
01:45 1012 29.88 841 24.83 -10.2 13.7 83 -12.5 9.5
01:50 1011 29.85 841 24.83 -10.3 13.6 85 -12.4 9.7
01:55 1011 29.85 841 24.83 -10.3 13.4 85 -12.3 9.8
02:00 1011 29.85 841 24.83 -10.3 13.5 85 -12.4 9.7
02:05 1011 29.85 841 24.83 -10.3 13.5 84 -12.4 9.6
02:10 1011 29.85 840 24.81 -10.3 13.4 84 -12.5 9.5
02:15 1011 29.85 840 24.81 -10.4 13.3 83 -12.8 9
02:20 1011 29.85 840 24.81 -10.4 13.2 82 -12.9 8.8
02:25 1011 29.85 840 24.81 -10.4 13.2 82 -13 8.6
02:30 1011 29.85 840 24.81 -10.4 13.2 82 -13 8.6
02:35 1011 29.85 840 24.81 -10.4 13.3 81 -13.1 8.4
02:40 1011 29.85 840 24.81 -10.4 13.3 81 -13.1 8.5
02:45 1011 29.85 840 24.81 -10.4 13.3 80 -13.2 8.2
02:50 1011 29.85 840 24.81 -10.4 13.2 80 -13.3 8
02:55 1011 29.85 840 24.81 -10.5 13.1 80 -13.4 7.9
03:00 1011 29.85 840 24.81 -10.5 13.1 79 -13.5 7.7
03:05 1011 29.85 840 24.81 -10.5 13.1 78 -13.6 7.5
03:10 1011 29.85 840 24.81 -10.5 13.1 78 -13.7 7.4
03:15 1011 29.85 840 24.81 -10.5 13.1 78 -13.7 7.3
03:20 1010 29.83 840 24.81 -10.5 13 78 -13.7 7.3
03:25 1010 29.83 840 24.81 -10.6 13 77 -13.9 7
03:30 1010 29.83 840 24.81 -10.6 12.9 77 -13.9 7
03:35 1010 29.83 840 24.81 -10.7 12.8 77 -14 6.9
03:40 1010 29.83 840 24.81 -10.7 12.7 77 -14.1 6.7
03:45 1010 29.83 840 24.81 -10.8 12.7 77 -14 6.7
03:50 1010 29.83 839 24.78 -10.8 12.6 77 -14 6.8
03:55 1010 29.83 839 24.78 -10.7 12.7 78 -13.8 7.1
04:00 1010 29.83 839 24.78 -10.7 12.8 78 -13.7 7.3
04:05 1010 29.83 839 24.78 -10.7 12.8 78 -13.7 7.3
04:10 1010 29.83 839 24.78 -10.7 12.7 78 -13.9 7.1
04:15 1010 29.83 839 24.78 -10.8 12.6 79 -13.8 7.2
04:20 1010 29.83 839 24.78 -10.8 12.6 80 -13.7 7.4
04:25 1010 29.83 839 24.78 -10.8 12.6 81 -13.5 7.7
04:30 1010 29.83 839 24.78 -10.7 12.7 81 -13.4 7.9
04:35 1010 29.83 839 24.78 -10.7 12.7 81 -13.3 8
04:40 1010 29.83 839 24.78 -10.7 12.8 82 -13.2 8.2
04:45 1009 29.8 839 24.78 -10.6 12.9 83 -13 8.6
04:50 1009 29.8 839 24.78 -10.5 13.2 83 -12.9 8.8
04:55 1010 29.83 839 24.78 -10.4 13.3 83 -12.8 9
05:00 1009 29.8 839 24.78 -10.2 13.6 84 -12.4 9.7
05:05 1009 29.8 838 24.75 -10.2 13.7 83 -12.6 9.4
05:10 1009 29.8 838 24.75 -10.3 13.4 81 -13 8.5
05:15 1009 29.8 838 24.75 -10.5 13 80 -13.4 7.9
05:20 1009 29.8 838 24.75 -10.6 12.9 81 -13.3 8.1
05:25 1009 29.8 838 24.75 -10.5 13.1 81 -13.2 8.2
05:30 1009 29.8 838 24.75 -10.4 13.4 80 -13.2 8.3
05:35 1009 29.8 838 24.75 -10.3 13.5 76 -13.8 7.1
05:40 1009 29.8 838 24.75 -10.3 13.5 75 -14 6.8
05:45 1009 29.8 838 24.75 -10.3 13.5 75 -14 6.8
05:50 1009 29.8 838 24.75 -10.2 13.6 75 -13.9 7
05:55 1009 29.8 838 24.75 -10.2 13.7 75 -13.8 7.2
06:00 1009 29.8 838 24.75 -10.1 13.9 73 -14.1 6.6
06:05 1009 29.8 838 24.75 -10.1 13.9 74 -13.8 7.1
06:10 1009 29.8 838 24.75 -10 13.9 73 -14 6.9
06:15 1009 29.8 838 24.75 -10.1 13.9 74 -13.9 6.9
06:20 1008 29.77 838 24.75 -10 13.9 75 -13.7 7.4
06:25 1009 29.8 838 24.75 -10 14 76 -13.4 7.9
06:30 1009 29.8 838 24.75 -10 14.1 77 -13.4 8
06:35 1009 29.8 838 24.75 -9.9 14.1 78 -13.2 8.3
06:40 1008 29.77 838 24.75 -10 14.1 79 -13 8.6
06:45 1008 29.77 837 24.72 -10 14 78 -13.1 8.4
06:50 1008 29.77 837 24.72 -10 13.9 79 -13.1 8.4
06:55 1008 29.77 837 24.72 -10.1 13.9 79 -13.1 8.4
07:00 1008 29.77 837 24.72 -10.1 13.9 77 -13.4 7.9
07:05 1008 29.77 837 24.72 -10.1 13.8 77 -13.3 8
07:10 1008 29.77 837 24.72 -10.1 13.8 77 -13.4 7.9
07:15 1008 29.77 837 24.72 -10.2 13.7 76 -13.6 7.6
07:20 1008 29.77 837 24.72 -10.2 13.6 76 -13.7 7.3
07:25 1008 29.77 837 24.72 -10.3 13.5 76 -13.8 7.2
07:30 1008 29.77 837 24.72 -10.2 13.7 75 -13.9 7.1
07:35 1008 29.77 837 24.72 -10.1 13.8 74 -13.9 6.9
07:40 1008 29.77 837 24.72 -10.1 13.8 73 -14.1 6.7
07:45 1008 29.77 837 24.72 -10.1 13.8 73 -14.1 6.7
07:50 1008 29.77 837 24.72 -10.1 13.8 73 -14.1 6.7
07:55 1008 29.77 837 24.72 -10.1 13.9 74 -14 6.9
08:00 1008 29.77 837 24.72 -10 14 73 -14 6.9
08:05 1008 29.77 837 24.72 -10 14.1 73 -14 6.9
08:10 1008 29.77 837 24.72 -10 14 74 -13.8 7.2
08:15 1008 29.77 837 24.72 -10 14 76 -13.5 7.7
08:20 1008 29.77 837 24.72 -10 14.1 75 -13.5 7.6
08:25 1008 29.77 837 24.72 -9.9 14.2 75 -13.6 7.5
08:30 1008 29.77 837 24.72 -9.9 14.2 76 -13.4 7.9
08:35 1008 29.77 837 24.72 -9.9 14.3 76 -13.3 8
08:40 1008 29.77 837 24.72 -9.8 14.4 76 -13.3 8.1
08:45 1008 29.77 837 24.72 -9.7 14.5 76 -13.2 8.3
08:50 1008 29.77 837 24.72 -9.8 14.4 74 -13.5 7.6
08:55 1008 29.77 837 24.72 -9.9 14.2 75 -13.5 7.7
09:00 1008 29.77 837 24.72 -9.9 14.1 76 -13.5 7.7
09:05 1008 29.77 837 24.72 -9.9 14.2 76 -13.4 7.9
09:10 1008 29.77 837 24.72 -9.9 14.1 76 -13.4 7.8
09:15 1008 29.77 837 24.72 -10 14.1 74 -13.7 7.3
09:20 1008 29.77 837 24.72 -10 14 74 -13.9 7
09:25 1008 29.77 837 24.72 -10 14 75 -13.7 7.4
09:30 1008 29.77 837 24.72 -9.9 14.1 75 -13.5 7.6
09:35 1008 29.77 837 24.72 -10 14 76 -13.5 7.7
09:40 1008 29.77 837 24.72 -10.1 13.8 77 -13.5 7.8
09:45 1008 29.77 837 24.72 -10.1 13.8 76 -13.5 7.6
09:50 1008 29.77 837 24.72 -10.2 13.7 76 -13.7 7.4
09:55 1008 29.77 837 24.72 -10.1 13.9 75 -13.8 7.2
10:00 1008 29.77 837 24.72 -10 13.9 74 -13.9 7
10:05 1008 29.77 837 24.72 -10.1 13.8 75 -13.8 7.2
10:10 1008 29.77 837 24.72 -10.2 13.6 76 -13.6 7.5
10:15 1008 29.77 837 24.72 -10.3 13.5 77 -13.6 7.5
10:20 1008 29.77 837 24.72 -10.3 13.5 77 -13.6 7.5
10:25 1008 29.77 837 24.72 -10.2 13.7 77 -13.5 7.7
10:30 1008 29.77 837 24.72 -10 14 76 -13.5 7.7
10:35 1008 29.77 837 24.72 -10 14 76 -13.4 7.8
10:40 1008 29.77 837 24.72 -9.9 14.1 76 -13.4 7.9
10:45 1008 29.77 837 24.72 -9.8 14.3 76 -13.3 8
10:50 1008 29.77 837 24.72 -9.8 14.4 75 -13.4 7.9
10:55 1008 29.77 837 24.72 -9.7 14.5 75 -13.4 7.9
11:00 1008 29.77 837 24.72 -9.7 14.6 77 -13.1 8.5
11:05 1008 29.77 837 24.72 -9.6 14.7 77 -13 8.6
11:10 1008 29.77 837 24.72 -9.8 14.4 78 -12.9 8.7
11:15 1008 29.77 837 24.72 -9.8 14.5 77 -13 8.6
11:20 1008 29.77 837 24.72 -9.8 14.5 78 -12.8 8.9
11:25 1008 29.77 837 24.72 -9.7 14.5 80 -12.6 9.3
11:30 1008 29.77 837 24.72 -9.5 14.8 80 -12.4 9.6
11:35 1008 29.77 837 24.72 -9.6 14.8 78 -12.7 9.2
11:40 1008 29.77 837 24.72 -9.7 14.6 80 -12.5 9.5
11:45 1008 29.77 837 24.72 -9.5 15 80 -12.3 9.9
11:50 1008 29.77 837 24.72 -9.1 15.6 78 -12.2 10
11:55 1008 29.77 837 24.72 -8.9 15.9 78 -12.1 10.3
12:00 1008 29.77 837 24.72 -8.9 16 78 -12.1 10.1
12:05 1008 29.77 837 24.72 -8.7 16.3 78 -11.9 10.6
12:10 1008 29.77 837 24.72 -8.5 16.7 76 -12 10.3
12:15 1008 29.77 837 24.72 -8.8 16.3 77 -12 10.3
12:20 1008 29.77 838 24.75 -8.7 16.3 81 -11.4 11.4
12:25 1009 29.8 838 24.75 -8.4 16.8 80 -11.3 11.7
12:30 1009 29.8 838 24.75 -8.1 17.4 79 -11.2 11.9
12:35 1008 29.77 838 24.75 -8 17.5 79 -11.1 12
12:40 1008 29.77 838 24.75 -8 17.7 78 -11.2 11.9
12:45 1008 29.77 838 24.75 -7.8 17.9 76 -11.4 11.5
12:50 1008 29.77 837 24.72 -8 17.7 77 -11.3 11.6
12:55 1008 29.77 837 24.72 -7.8 17.9 76 -11.3 11.6
13:00 1008 29.77 837 24.72 -7.8 17.9 76 -11.4 11.5
13:05 1008 29.77 837 24.72 -7.9 17.8 77 -11.2 11.8
13:10 1008 29.77 837 24.72 -7.7 18.1 76 -11.2 11.8
13:15 1008 29.77 837 24.72 -7.7 18.1 76 -11.3 11.7
13:20 1008 29.77 837 24.72 -7.8 18 77 -11.2 11.8
13:25 1008 29.77 837 24.72 -7.8 17.9 77 -11.2 11.8
13:30 1008 29.77 837 24.72 -7.9 17.7 77 -11.2 11.8
13:35 1008 29.77 837 24.72 -8 17.6 76 -11.5 11.3
13:40 1008 29.77 837 24.72 -8 17.5 78 -11.3 11.7
13:45 1008 29.77 837 24.72 -8.1 17.5 79 -11.2 11.9
13:50 1008 29.77 837 24.72 -8.3 17.1 78 -11.4 11.4
13:55 1008 29.77 837 24.72 -8.4 16.9 78 -11.6 11.1
14:00 1008 29.77 837 24.72 -8.3 17 77 -11.7 11
14:05 1008 29.77 837 24.72 -8.4 17 76 -11.9 10.7
14:10 1008 29.77 837 24.72 -8.5 16.8 77 -11.8 10.8
14:15 1008 29.77 837 24.72 -8.2 17.2 76 -11.8 10.8
14:20 1008 29.77 837 24.72 -8.1 17.4 75 -11.7 10.9
14:25 1008 29.77 837 24.72 -8.2 17.2 76 -11.8 10.8
14:30 1008 29.77 837 24.72 -8.3 17.1 76 -11.9 10.6
14:35 1008 29.77 837 24.72 -8.7 16.3 79 -11.8 10.7
14:40 1008 29.77 837 24.72 -8.7 16.3 78 -11.9 10.6
14:45 1008 29.77 837 24.72 -8.8 16.1 78 -11.9 10.5
14:50 1008 29.77 837 24.72 -9 15.9 78 -12.1 10.3
14:55 1008 29.77 837 24.72 -9 15.9 79 -12.1 10.3
15:00 1008 29.77 838 24.75 -8.9 16 78 -12 10.4
15:05 1008 29.77 837 24.72 -9 15.7 79 -12.1 10.3
15:10 1008 29.77 838 24.75 -9.1 15.6 79 -12.1 10.3
15:15 1008 29.77 837 24.72 -9.1 15.6 79 -12.1 10.2
15:20 1008 29.77 838 24.75 -9.1 15.5 79 -12.1 10.2
15:25 1008 29.77 838 24.75 -9.3 15.3 80 -12.1 10.2
15:30 1009 29.8 838 24.75 -9.3 15.2 80 -12.1 10.2
15:35 1009 29.8 838 24.75 -9.3 15.3 81 -12 10.3
15:40 1008 29.77 838 24.75 -9.2 15.4 80 -12.1 10.3
15:45 1009 29.8 838 24.75 -9.6 14.8 82 -12.2 10.1
15:50 1009 29.8 838 24.75 -9.5 15 82 -12 10.4
15:55 1008 29.77 838 24.75 -9.3 15.2 81 -12 10.4
16:00 1009 29.8 838 24.75 -9.3 15.3 81 -11.9 10.5
16:05 1009 29.8 838 24.75 -9.3 15.3 81 -11.9 10.5
16:10 1009 29.8 838 24.75 -9.3 15.3 82 -11.8 10.8
16:15 1009 29.8 838 24.75 -9.2 15.5 80 -11.9 10.5
16:20 1009 29.8 838 24.75 -9.4 15.1 81 -12 10.4
16:25 1009 29.8 838 24.75 -9.4 15.2 82 -12 10.5
16:30 1009 29.8 838 24.75 -9.3 15.2 81 -12.1 10.3
16:35 1009 29.8 838 24.75 -9.5 14.9 83 -11.9 10.5
16:40 1009 29.8 838 24.75 -9.3 15.2 82 -11.9 10.7
16:45 1009 29.8 838 24.75 -9.3 15.3 81 -12 10.3
16:50 1009 29.8 838 24.75 -9.3 15.3 81 -12 10.4
16:55 1009 29.8 838 24.75 -9.5 15 81 -12.2 10
17:00 1009 29.8 838 24.75 -9.6 14.6 82 -12.2 10.1
17:05 1009 29.8 838 24.75 -9.5 15 81 -12.1 10.2
17:10 1009 29.8 838 24.75 -9.4 15.1 81 -12 10.3
17:15 1009 29.8 838 24.75 -9.5 14.9 81 -12.2 10.1
17:20 1009 29.8 838 24.75 -9.8 14.3 82 -12.3 9.8
17:25 1009 29.8 838 24.75 -9.9 14.2 82 -12.4 9.7
17:30 1009 29.8 838 24.75 -10 14 83 -12.4 9.7
17:35 1009 29.8 839 24.78 -10 14 84 -12.2 10
17:40 1009 29.8 838 24.75 -9.9 14.1 83 -12.3 9.9
17:45 1009 29.8 838 24.75 -9.9 14.2 83 -12.3 9.8
17:50 1009 29.8 838 24.75 -9.9 14.1 84 -12.2 10.1
17:55 1009 29.8 838 24.75 -9.9 14.2 83 -12.3 9.9
18:00 1009 29.8 838 24.75 -10 14 83 -12.3 9.8
18:05 1009 29.8 838 24.75 -10.1 13.8 83 -12.4 9.6
18:10 1009 29.8 839 24.78 -10.3 13.5 84 -12.5 9.5
18:15 1009 29.8 839 24.78 -10.5 13.1 84 -12.6 9.3
18:20 1010 29.83 839 24.78 -10.6 12.9 85 -12.7 9.2
18:25 1010 29.83 839 24.78 -10.7 12.7 85 -12.8 9
18:30 1010 29.83 839 24.78 -10.8 12.6 86 -12.7 9.1
18:35 1010 29.83 839 24.78 -10.7 12.8 85 -12.7 9.2
18:40 1010 29.83 839 24.78 -10.7 12.8 85 -12.7 9.2
18:45 1010 29.83 839 24.78 -10.7 12.7 85 -12.8 9
18:50 1010 29.83 839 24.78 -10.7 12.7 84 -12.9 8.9
18:55 1010 29.83 839 24.78 -10.8 12.6 85 -12.9 8.8
19:00 1010 29.83 839 24.78 -10.8 12.6 84 -13 8.6
19:05 1010 29.83 839 24.78 -10.8 12.5 85 -12.9 8.7
19:10 1010 29.83 839 24.78 -10.8 12.5 85 -12.9 8.8
19:15 1010 29.83 839 24.78 -10.9 12.4 83 -13.2 8.3
19:20 1010 29.83 839 24.78 -11.1 12 84 -13.4 7.9
19:25 1010 29.83 839 24.78 -11.2 11.9 84 -13.4 7.8
19:30 1010 29.83 839 24.78 -11.2 11.8 84 -13.4 7.9
19:35 1010 29.83 839 24.78 -11.3 11.7 84 -13.5 7.8
19:40 1010 29.83 839 24.78 -11.5 11.4 84 -13.7 7.4
19:45 1010 29.83 839 24.78 -11.5 11.3 84 -13.7 7.4
19:50 1010 29.83 839 24.78 -11.5 11.2 84 -13.7 7.3
19:55 1010 29.83 839 24.78 -11.6 11.1 84 -13.8 7.1
20:00 1010 29.83 839 24.78 -11.6 11 84 -13.9 7
20:05 1010 29.83 839 24.78 -11.7 11 84 -13.9 7
20:10 1010 29.83 839 24.78 -11.7 10.9 84 -13.9 7
20:15 1010 29.83 839 24.78 -11.7 11 84 -13.8 7.1
20:20 1010 29.83 839 24.78 -11.7 11 84 -13.8 7.2
20:25 1010 29.83 839 24.78 -11.7 11 84 -13.8 7.1
20:30 1010 29.83 839 24.78 -11.7 10.9 83 -14 6.8
20:35 1010 29.83 839 24.78 -11.8 10.8 84 -13.9 7
20:40 1010 29.83 839 24.78 -11.8 10.9 83 -14.1 6.6
20:45 1010 29.83 839 24.78 -11.8 10.7 82 -14.2 6.4
20:50 1010 29.83 839 24.78 -11.9 10.5 83 -14.3 6.2
20:55 1010 29.83 839 24.78 -12 10.4 82 -14.4 6.1
21:00 1010 29.83 839 24.78 -12 10.4 82 -14.4 6
21:05 1010 29.83 839 24.78 -12.1 10.3 83 -14.4 6.1
21:10 1010 29.83 839 24.78 -12.1 10.2 83 -14.4 6
21:15 1010 29.83 839 24.78 -12.1 10.3 83 -14.5 6
21:20 1010 29.83 839 24.78 -12.1 10.2 82 -14.6 5.8
21:25 1010 29.83 839 24.78 -12.2 10.1 82 -14.6 5.7
21:30 1010 29.83 839 24.78 -12.1 10.2 83 -14.4 6
21:35 1010 29.83 839 24.78 -12.1 10.2 83 -14.5 5.9
21:40 1010 29.83 839 24.78 -12.1 10.2 82 -14.6 5.8
21:45 1010 29.83 839 24.78 -12.2 10.1 82 -14.6 5.7
21:50 1010 29.83 839 24.78 -12.1 10.1 81 -14.7 5.5
21:55 1010 29.83 839 24.78 -12.2 10.1 82 -14.6 5.8
22:00 1010 29.83 839 24.78 -12.1 10.3 82 -14.6 5.8
22:05 1010 29.83 839 24.78 -12.1 10.2 82 -14.6 5.7
22:10 1010 29.83 839 24.78 -12.2 10.1 82 -14.6 5.7
22:15 1010 29.83 839 24.78 -12.2 10.1 82 -14.6 5.8
22:20 1010 29.83 839 24.78 -12.1 10.3 82 -14.5 5.8
22:25 1010 29.83 839 24.78 -12.1 10.2 82 -14.6 5.8
22:30 1010 29.83 839 24.78 -12.1 10.2 82 -14.5 5.9
22:35 1010 29.83 839 24.78 -12.1 10.2 83 -14.5 5.9
22:40 1010 29.83 839 24.78 -12.2 10.1 82 -14.6 5.7
22:45 1010 29.83 839 24.78 -12.2 10 81 -14.8 5.3
22:50 1010 29.83 839 24.78 -12.4 9.8 81 -15 5
22:55 1010 29.83 839 24.78 -12.5 9.6 82 -14.9 5.2
23:00 1010 29.83 839 24.78 -12.4 9.6 82 -14.9 5.2
23:05 1010 29.83 839 24.78 -12.5 9.6 82 -14.9 5.2
23:10 1010 29.83 839 24.78 -12.5 9.5 81 -15.1 4.9
23:15 1010 29.83 839 24.78 -12.6 9.4 82 -15 4.9
23:20 1010 29.83 839 24.78 -12.6 9.4 82 -15.1 4.9
23:25 1010 29.83 839 24.78 -12.6 9.4 82 -15.1 4.9
23:30 1010 29.83 839 24.78 -12.6 9.3 80 -15.3 4.4
23:35 1010 29.83 839 24.78 -12.8 9 81 -15.5 4.2
23:40 1010 29.83 839 24.78 -12.8 9 81 -15.4 4.2
23:45 1010 29.83 839 24.78 -12.8 8.9 80 -15.6 4
23:50 1010 29.83 839 24.78 -12.9 8.8 80 -15.7 3.8
23:55 1010 29.83 839 24.78 -13 8.6 80 -15.7 3.7
24:00 1010 29.83 839 24.78 -13 8.6 80 -15.8 3.6